GFSSW_850_thetae_000.txt.gz
Theta_e
316 315 315 314 314 314 314 314 314 314 314 314 315 315 315 314 313 315 316 317 317 316 316 317 316 317 318 317 317 318 321 322 320 318 319 313 315 311 311 311 310 311 312 312 310
313 313 313 313 312 312 312 312 312 313 313 313 314 315 315 315 315 315 317 316 316 315 317 317 317 317 318 317 316 318 321 320 318 317 317 315 314 314 312 312 311 311 312 312 310
311 310 311 311 311 311 311 311 311 311 311 312 312 314 315 315 316 316 317 316 315 315 316 317 317 316 318 317 316 316 321 317 316 315 314 315 313 312 313 316 315 315 313 312 310
311 312 312 312 311 311 310 310 310 310 310 310 311 312 315 316 319 316 317 317 315 314 315 317 318 318 319 319 315 318 315 315 315 314 313 314 312 312 312 316 315 314 312 312 310
312 312 313 313 313 313 313 312 310 310 310 310 310 311 313 315 316 316 316 316 315 314 314 316 318 317 321 316 315 317 315 314 315 313 313 312 313 314 313 314 313 313 312 311 310
312 312 313 313 314 313 313 313 312 311 310 309 310 311 312 315 315 317 315 314 314 314 314 315 317 317 315 317 317 314 314 315 313 313 313 313 315 310 315 314 313 313 313 311 310
312 312 312 312 312 312 313 312 311 311 310 309 309 311 313 314 314 316 316 314 314 313 313 314 316 316 315 314 311 312 316 317 314 313 314 311 315 315 315 313 311 312 312 311 311
312 312 312 312 312 312 312 311 311 311 310 310 310 312 313 313 315 315 317 315 313 313 313 313 314 315 313 311 312 315 314 319 316 313 312 313 317 318 315 310 312 311 308 310 311
313 313 313 313 313 312 312 311 311 310 310 310 311 312 315 314 315 316 317 314 312 312 313 313 314 313 312 317 318 317 319 318 316 312 313 314 317 316 314 311 311 312 310 308 309
313 313 313 313 313 312 312 310 310 310 310 312 313 315 314 314 315 316 316 314 311 312 312 313 313 316 315 318 317 319 318 317 316 314 312 314 314 315 314 312 312 313 313 308 305
306 309 311 311 311 311 311 308 309 309 311 312 314 314 313 314 315 315 315 313 311 310 314 312 316 317 318 317 317 315 316 318 318 312 312 314 314 314 313 313 313 312 312 309 305
307 306 306 307 307 308 306 305 306 308 309 309 311 312 313 314 313 313 313 312 312 314 311 314 315 317 313 313 314 315 317 319 317 310 309 313 312 312 313 312 312 312 313 311 306
309 308 307 307 306 306 305 305 306 308 312 311 310 310 311 311 311 311 311 312 313 313 313 315 316 310 312 313 314 315 317 318 316 311 309 308 313 311 311 308 309 310 309 309 306
312 311 309 309 308 307 307 307 309 311 312 310 308 310 310 311 309 309 310 310 309 313 311 313 311 312 313 314 314 317 314 313 312 312 316 309 315 315 312 311 311 312 310 307 309
316 313 310 310 308 307 308 310 310 310 313 309 307 308 311 310 307 307 308 308 311 310 311 315 310 311 314 315 312 316 308 310 309 311 309 314 312 313 307 310 312 313 313 309 310
316 314 312 311 311 307 308 310 311 310 309 309 310 310 311 309 307 306 306 306 306 309 309 312 306 309 313 305 307 305 308 307 305 308 314 314 313 313 313 312 312 313 311 310 310
318 315 314 312 310 308 309 310 312 309 305 308 311 310 311 311 310 308 308 308 312 313 313 311 310 307 306 310 306 307 313 317 321 318 318 309 310 312 312 312 312 314 314 309 308
321 316 315 313 312 309 309 311 310 311 310 308 310 310 313 311 311 309 309 311 308 309 312 315 315 308 307 313 316 310 315 320 324 318 318 306 311 314 312 311 311 307 308 307 307
321 316 315 314 314 309 307 311 311 312 310 308 310 312 312 311 310 310 311 313 313 309 314 314 315 305 304 305 310 309 312 312 317 305 314 315 316 314 311 309 307 307 306 306 307
321 317 315 315 313 309 308 310 311 309 307 309 311 311 311 312 310 311 311 311 312 309 312 314 314 307 302 303 302 306 307 312 313 320 319 315 315 314 314 312 310 308 307 308 309
321 315 315 315 310 309 309 310 310 308 307 310 311 311 310 311 311 311 311 311 310 309 309 311 313 309 305 307 310 305 309 307 309 313 316 316 315 310 311 312 311 311 310 310 309
317 315 314 313 310 310 310 310 307 308 307 309 308 309 310 309 310 311 311 311 310 308 309 311 313 315 313 304 302 308 310 310 312 313 311 314 315 311 311 311 310 311 309 310 310
316 315 312 312 313 311 310 311 309 310 309 310 310 310 308 309 308 310 311 309 308 310 311 309 312 316 314 306 301 306 306 307 311 312 313 315 314 312 312 310 308 309 310 309 310
315 311 307 308 310 312 312 313 312 310 310 308 308 309 309 310 309 310 310 308 307 309 309 310 313 314 313 313 307 308 307 307 308 312 312 312 312 312 312 311 312 310 307 307 308
316 311 307 305 306 310 312 313 314 313 310 309 309 309 311 311 310 311 311 311 305 305 307 310 313 313 314 314 313 312 310 308 308 309 311 312 312 312 312 311 311 310 309 309 309
313 309 306 308 307 308 309 312 313 314 314 313 311 313 309 310 311 315 313 310 311 307 309 306 313 312 312 311 311 312 311 312 311 311 310 309 309 309 310 309 309 309 308 308 308
308 310 309 306 307 307 308 309 311 312 312 313 313 311 312 311 310 310 311 311 310 311 310 308 310 312 314 313 312 313 312 311 311 311 311 311 311 311 310 310 310 309 309 307 307

GFSSW_850_thetae_006.txt.gz
Theta_e
314 313 313 312 311 311 311 310 310 310 310 311 312 313 315 315 315 315 316 318 318 317 316 317 317 317 319 321 319 320 320 322 324 323 322 318 318 317 317 317 317 317 317 316 316
311 311 311 311 311 311 311 311 310 310 310 310 310 311 313 314 315 315 317 317 317 316 315 318 319 318 320 321 320 321 324 324 321 320 320 319 318 318 316 315 316 316 315 315 314
310 310 311 311 312 312 313 313 313 311 311 310 309 310 311 313 315 318 318 317 317 316 315 317 319 319 320 322 321 321 321 321 320 320 319 318 318 318 317 315 317 316 316 316 314
311 311 312 312 312 313 313 313 313 313 312 311 310 309 310 312 320 319 317 317 318 316 315 316 318 319 320 322 322 320 321 321 320 318 317 317 317 318 317 316 318 318 318 317 316
312 312 312 312 312 312 313 313 313 313 313 312 311 310 309 315 316 316 317 316 317 316 314 315 318 320 322 322 321 319 319 320 319 318 316 317 317 316 317 317 317 317 317 317 316
312 312 312 312 312 312 312 312 312 312 312 312 311 310 310 315 314 315 315 315 316 315 314 314 316 319 318 319 319 318 318 318 318 318 317 316 316 317 317 317 317 317 317 316 315
312 312 312 312 313 313 313 313 313 313 313 312 311 310 311 314 314 313 313 315 315 314 314 314 314 315 319 319 317 317 315 316 317 318 316 317 314 314 317 317 317 317 317 317 316
308 311 312 313 313 314 314 314 314 314 314 313 311 310 312 314 314 314 313 314 315 314 313 314 313 314 317 317 317 316 317 317 319 318 315 315 315 316 318 317 317 317 316 316 316
309 307 307 307 309 312 314 315 315 314 313 313 310 311 315 315 315 314 313 314 315 314 313 313 313 316 316 316 316 316 317 318 319 318 315 314 316 315 317 317 317 316 316 316 315
311 310 309 308 306 306 307 309 312 312 311 310 311 315 314 314 314 314 314 315 314 313 312 312 314 315 315 315 316 317 317 317 316 317 315 314 314 314 316 316 316 316 316 316 316
313 312 312 311 310 308 307 307 309 314 311 314 316 315 316 315 314 314 315 314 312 313 315 315 314 315 315 316 317 317 316 316 317 316 315 315 315 315 316 316 315 316 316 316 316
316 315 315 314 312 311 309 308 311 309 308 309 310 312 315 314 313 313 313 313 313 314 314 315 315 315 315 315 315 315 315 315 315 316 314 314 315 314 314 315 316 315 315 315 315
318 318 318 319 317 313 310 309 307 306 311 310 309 310 310 310 312 313 313 313 313 314 314 314 315 315 315 315 316 315 314 314 315 314 313 313 314 313 314 315 315 315 315 314 314
321 321 321 322 317 313 312 309 308 308 312 313 312 312 311 311 310 312 313 313 313 314 313 314 315 315 314 314 314 314 314 315 315 314 315 315 316 313 314 312 311 314 315 314 314
322 322 322 323 322 319 313 308 309 307 315 314 309 310 312 310 308 308 310 310 311 312 313 314 313 313 314 314 314 314 312 314 315 315 314 315 313 313 313 312 311 311 315 315 314
323 323 322 321 321 321 315 308 310 311 312 313 311 311 312 310 309 307 307 307 308 310 310 311 310 311 313 310 311 310 312 312 312 311 313 312 313 313 313 313 313 311 314 314 314
322 324 321 321 319 321 316 309 313 311 314 315 313 312 312 313 312 308 308 307 309 310 311 312 311 310 310 312 309 310 313 313 315 314 316 312 312 315 315 312 311 310 313 314 314
324 324 323 322 321 320 312 313 314 319 315 313 312 313 313 312 313 311 311 310 308 310 312 313 313 311 308 311 313 310 313 315 314 313 314 311 313 313 313 312 315 315 315 314 314
324 322 321 322 319 318 309 312 320 322 320 319 317 314 314 312 313 313 311 312 312 309 311 312 312 308 308 310 311 312 311 313 313 306 312 313 312 312 312 312 310 310 312 312 312
320 320 320 321 320 314 309 314 317 321 321 318 320 315 314 314 312 312 312 313 312 311 311 312 313 310 306 306 307 309 308 312 312 310 310 312 311 314 313 314 311 311 310 312 312
318 317 318 319 317 310 309 310 315 317 318 319 321 318 314 312 313 313 313 312 313 313 311 312 312 310 306 306 309 306 308 309 310 314 311 312 313 312 311 312 311 309 312 313 313
313 316 316 316 311 309 311 311 313 314 317 315 312 313 313 313 312 313 314 314 311 312 312 311 313 313 311 310 307 308 309 310 311 311 309 312 313 311 312 309 308 309 312 313 313
312 315 313 315 316 313 310 312 312 314 314 316 318 316 316 316 316 314 313 311 312 311 309 310 311 314 312 311 307 307 308 309 310 310 312 312 312 312 312 310 310 309 312 312 312
309 313 309 309 312 314 313 312 313 313 314 314 315 315 315 314 313 314 314 313 313 311 311 311 311 313 314 313 312 310 308 307 309 311 311 311 310 311 311 311 311 311 312 312 312
303 309 310 310 309 311 312 312 313 314 314 314 315 315 316 316 315 315 312 312 311 311 311 312 311 310 311 312 311 311 311 310 310 309 309 310 310 310 310 310 310 311 311 310 310
301 305 305 308 309 311 310 311 312 313 313 314 315 315 314 315 315 316 314 314 314 311 312 311 313 310 311 309 309 310 309 310 310 310 310 310 310 310 310 310 310 310 310 310 311
298 301 300 301 304 307 308 309 309 310 310 310 312 313 314 314 313 313 314 314 314 314 311 308 310 311 314 311 310 312 311 312 311 311 311 311 311 311 311 310 311 311 311 311 311

GFSSW_850_thetae_009.txt.gz
Theta_e
312 312 311 311 311 311 311 311 310 310 310 309 310 311 312 314 315 315 316 317 318 317 316 317 317 317 318 320 320 320 314 315 318 320 319 317 316 317 317 317 317 317 317 317 318
310 310 310 311 311 312 312 313 312 312 311 310 310 310 310 312 313 314 316 317 317 317 316 317 319 318 318 320 320 319 316 319 319 318 317 317 316 317 316 316 315 317 317 317 316
310 310 311 311 311 312 312 313 313 313 313 313 312 310 310 310 312 315 318 317 317 317 316 317 319 318 319 320 320 318 315 317 318 319 318 317 316 317 315 312 316 317 316 316 316
311 311 312 312 312 312 312 313 313 313 313 312 312 312 311 310 310 319 317 317 318 316 315 316 318 319 317 318 321 319 319 319 319 319 318 316 316 316 316 317 317 318 317 317 316
312 312 312 312 312 312 312 312 312 312 312 312 312 311 310 312 312 313 314 316 316 316 316 315 317 318 318 319 319 318 317 319 319 318 317 317 316 314 316 317 317 317 317 316 316
312 312 312 312 312 312 312 313 313 313 313 313 312 310 309 313 314 314 314 314 315 316 316 314 316 317 318 317 316 317 317 316 317 318 317 315 314 315 317 317 316 316 317 317 317
308 309 310 311 312 312 313 313 314 314 314 314 313 311 310 312 314 314 314 313 314 314 315 314 314 315 316 317 317 317 315 312 314 315 314 316 313 312 318 316 316 317 317 317 317
311 311 309 308 308 308 310 312 313 314 315 314 312 310 311 314 314 314 314 314 313 314 313 314 314 313 316 316 315 315 314 314 314 313 315 315 314 313 317 316 316 316 316 317 317
312 312 312 311 311 310 308 307 308 310 312 313 311 310 312 314 315 315 315 313 313 314 313 312 313 313 315 312 311 312 312 313 314 314 312 312 313 312 316 316 316 316 316 317 317
314 313 313 313 312 312 312 311 309 307 307 310 311 315 314 315 314 314 314 313 314 313 312 312 313 310 311 310 312 311 313 313 313 313 313 312 313 313 315 314 314 315 315 316 316
315 315 314 315 314 313 313 313 310 312 313 312 314 313 315 314 314 314 314 313 312 312 311 312 310 311 312 312 312 312 311 311 313 313 314 314 313 314 313 313 312 315 316 317 317
318 317 317 319 318 314 313 310 310 311 309 308 308 311 313 315 314 314 313 312 312 311 312 313 312 312 312 311 312 312 312 312 313 311 311 312 313 313 310 313 314 314 315 316 315
319 320 321 321 320 316 314 310 308 307 309 308 311 309 309 310 313 314 313 313 310 311 311 312 313 313 313 313 313 312 312 312 312 312 310 310 311 312 311 312 314 315 316 316 315
322 321 322 323 321 322 316 312 308 308 306 309 310 311 310 311 309 311 312 312 311 311 310 311 312 312 312 312 312 313 311 312 312 312 313 311 314 311 311 311 310 313 316 316 316
322 322 323 322 322 322 321 312 308 308 309 311 309 310 311 309 308 309 310 310 310 311 310 311 312 310 311 312 311 313 312 312 313 312 311 313 312 314 310 310 311 311 314 316 316
326 324 322 322 322 322 322 311 309 306 308 311 309 309 309 310 309 307 307 308 308 308 308 308 310 311 311 310 310 310 311 311 310 308 312 310 311 312 310 311 311 311 314 316 317
325 325 322 322 321 321 322 311 312 307 309 312 310 310 310 310 309 306 306 305 306 309 307 308 308 308 310 311 308 310 310 311 310 310 314 309 310 313 312 310 310 311 315 317 316
322 323 323 322 322 322 320 313 317 318 312 312 311 310 310 310 310 308 308 307 305 307 309 310 310 308 307 310 309 308 310 310 309 312 313 309 310 311 310 310 313 315 316 315 314
318 320 322 322 320 320 316 315 322 318 319 320 321 321 312 310 309 309 307 307 307 307 309 308 310 308 307 308 309 309 310 310 311 297 307 313 310 309 310 309 308 309 309 311 313
318 318 318 319 321 316 311 320 317 317 319 319 323 321 321 319 311 311 309 308 310 307 309 310 310 309 306 307 307 308 307 310 309 309 307 312 309 312 311 312 311 308 306 311 312
312 315 317 318 318 312 314 314 315 316 316 318 320 321 320 320 320 317 313 312 309 309 308 308 310 311 305 306 308 306 308 308 309 309 313 312 313 309 311 310 310 307 309 311 312
311 315 315 317 313 311 316 312 315 315 315 315 314 316 317 317 319 320 320 316 313 310 312 309 310 310 310 306 305 307 309 309 311 311 308 312 313 313 309 310 307 310 312 311 311
309 312 312 314 315 315 310 312 313 314 314 315 316 316 316 317 317 316 316 315 315 313 312 311 311 314 313 311 305 307 306 308 309 308 311 313 313 312 311 311 311 307 309 311 311
305 309 310 310 312 314 315 314 314 313 312 313 314 314 315 317 316 317 317 315 315 314 312 312 310 313 316 314 312 311 310 308 310 311 312 312 312 311 311 310 310 310 311 310 311
300 304 308 307 310 311 311 312 313 314 312 313 313 314 314 315 316 316 315 314 314 312 311 312 312 311 312 313 312 312 313 312 311 311 311 312 311 309 310 310 310 310 310 310 309
299 302 302 302 304 307 310 310 311 310 310 311 311 310 312 312 313 314 313 313 314 311 311 311 314 314 314 311 311 313 312 312 312 312 312 311 311 310 311 311 311 311 311 310 310
296 297 298 299 299 301 304 305 306 306 306 307 304 304 305 306 305 303 304 305 308 311 312 312 311 314 316 313 313 313 313 313 312 311 311 312 311 310 310 310 311 311 311 311 310

GFSSW_850_thetae_015.txt.gz
Theta_e
311 311 310 310 310 311 311 312 312 312 312 312 311 311 310 309 310 311 313 315 317 317 316 316 317 316 317 318 319 318 310 311 313 315 317 316 315 316 316 316 316 317 318 317 317
310 310 310 310 311 311 311 312 312 312 313 313 312 312 312 312 311 312 312 313 316 317 316 316 317 317 316 318 319 316 308 310 311 314 315 316 315 316 315 315 314 316 317 317 317
310 310 311 311 311 311 311 311 312 312 312 312 312 312 312 312 312 313 316 313 314 316 316 315 318 318 317 317 318 315 313 312 316 318 317 316 314 316 314 311 315 317 317 317 317
312 312 312 312 312 312 312 312 312 312 312 312 312 312 312 311 310 316 315 314 315 315 315 315 317 317 315 315 318 316 316 315 316 318 317 314 316 313 315 316 317 317 316 317 317
312 312 312 312 312 312 312 312 312 312 312 312 313 313 312 310 312 314 313 313 313 315 316 315 315 317 315 314 316 315 315 318 318 317 317 317 314 313 315 317 317 317 316 316 316
309 309 309 309 309 310 310 311 312 312 313 313 313 313 313 309 313 313 313 314 314 315 316 314 315 316 316 315 314 315 314 315 315 316 316 315 315 314 316 316 316 316 316 316 315
313 313 313 313 313 313 312 310 309 309 310 312 313 314 313 314 315 315 314 314 314 314 314 314 314 315 314 313 315 315 312 310 310 313 312 314 312 310 316 315 316 317 317 317 317
314 314 314 314 314 314 314 314 314 312 310 307 307 311 311 315 315 315 315 313 313 313 313 313 313 314 314 313 312 312 311 311 310 310 312 313 311 312 316 316 316 318 318 318 317
312 311 311 312 313 313 314 314 314 314 314 310 306 307 310 313 314 314 313 313 313 312 312 312 313 313 313 309 309 308 309 309 309 310 311 310 312 311 315 316 315 316 317 317 317
316 315 313 311 311 312 312 313 314 313 312 309 307 309 308 311 313 314 314 313 313 312 311 311 312 308 307 307 310 309 308 308 309 311 310 310 310 310 315 312 313 315 315 315 316
320 319 318 317 317 316 313 313 312 312 312 312 311 308 311 312 312 314 313 313 312 311 308 310 308 309 310 309 310 308 307 308 308 309 311 310 311 311 312 312 312 312 312 313 314
321 320 321 320 322 320 321 315 312 309 309 312 313 311 310 313 314 314 313 312 311 309 308 309 308 309 309 308 308 309 310 310 310 310 307 308 309 309 308 310 312 313 312 312 313
325 323 321 321 322 321 321 321 316 308 308 310 311 309 311 310 312 313 312 311 310 308 308 310 310 309 308 308 310 308 309 310 310 309 307 307 310 309 307 309 311 312 312 312 313
324 324 324 323 324 322 322 321 313 308 306 306 308 308 308 309 310 310 311 311 309 309 308 308 309 309 308 308 309 311 308 309 309 309 311 309 312 309 309 309 307 310 312 313 315
322 325 324 324 324 324 323 322 310 312 325 312 309 309 310 308 307 307 309 310 308 308 308 307 309 309 309 310 308 310 309 308 308 307 308 310 308 311 309 309 308 308 311 315 316
320 321 323 323 324 322 323 321 313 313 322 312 308 308 309 309 307 307 308 308 307 307 306 307 307 307 308 307 306 308 310 308 305 306 310 310 310 312 308 309 309 309 314 315 316
320 321 321 322 322 322 323 317 322 324 315 314 309 308 307 308 308 306 306 307 307 308 306 306 306 306 308 309 308 309 308 309 309 309 312 307 308 313 311 308 308 310 312 313 313
314 316 317 318 320 321 322 319 321 319 317 314 310 308 310 307 309 306 305 305 305 305 304 307 313 306 306 308 307 307 308 310 308 314 315 306 309 315 308 308 309 309 311 312 313
309 310 313 315 318 320 318 321 319 320 318 319 319 318 312 310 310 308 306 306 306 304 309 307 310 306 305 306 307 306 308 309 310 303 308 311 310 311 308 307 308 308 311 312 311
306 307 308 310 317 318 316 320 319 318 317 319 322 319 320 311 317 309 310 308 307 304 306 310 311 310 306 306 306 307 307 309 307 311 311 310 311 312 311 311 309 306 307 312 312
300 306 307 310 313 314 315 315 316 317 317 318 319 320 320 320 319 319 319 315 308 310 305 307 311 314 310 307 310 306 307 307 307 310 314 315 314 313 312 308 307 305 307 310 312
303 308 307 313 313 313 315 313 314 314 315 316 316 317 318 318 318 317 319 317 314 312 312 309 312 315 314 307 305 307 308 308 311 312 310 312 314 313 313 309 304 308 311 312 312
305 307 309 314 313 313 312 312 313 313 313 314 315 314 315 315 316 315 316 315 315 313 314 313 314 316 316 311 309 312 313 312 311 311 311 312 312 311 311 311 311 310 310 311 311
300 301 307 308 309 311 311 312 312 312 313 313 314 313 313 314 313 314 313 311 310 310 310 312 315 316 317 316 312 312 311 311 313 314 314 313 312 311 311 311 311 312 311 309 305
297 299 302 306 306 307 309 308 309 309 311 312 312 313 313 313 312 313 309 306 307 307 307 309 312 312 311 310 310 311 311 312 313 314 313 313 315 313 312 311 307 303 302 299 299
296 297 298 297 299 302 304 307 307 307 308 309 309 309 309 310 310 306 301 303 303 304 302 303 305 305 306 305 305 307 307 309 311 309 309 307 307 301 297 294 293 297 294 294 294
293 294 295 296 296 297 300 302 302 299 303 301 299 300 302 301 297 296 296 296 298 298 299 300 302 300 302 300 299 299 300 302 305 306 305 306 299 295 294 293 292 293 292 293 294

GFSSW_850_thetae_021.txt.gz
Theta_e
311 310 310 310 310 310 310 311 311 311 312 312 312 312 312 312 312 312 313 313 311 315 315 315 315 315 315 317 317 317 312 312 313 311 313 314 313 314 315 315 315 316 317 317 317
310 310 310 310 310 310 311 311 311 311 311 311 312 312 312 312 313 313 313 313 311 314 316 315 315 316 316 316 317 315 311 311 309 309 312 314 314 315 315 316 313 315 317 317 317
310 311 311 311 312 312 312 312 312 312 312 312 312 312 312 312 313 313 315 313 312 313 316 315 315 316 315 316 316 314 314 310 312 312 313 314 313 315 314 313 316 316 317 316 316
312 312 312 312 312 312 312 312 312 312 312 312 312 312 312 312 310 313 313 313 313 313 315 315 315 316 315 314 316 315 315 314 315 315 315 314 314 313 315 317 316 317 317 316 316
311 310 310 310 310 309 309 310 310 310 311 311 312 312 312 312 313 314 313 313 312 313 314 315 315 316 313 313 313 313 313 316 316 315 316 316 314 313 315 316 316 315 315 315 315
310 311 311 312 313 313 313 314 314 313 313 311 310 309 309 310 313 314 313 313 313 313 314 314 314 315 314 313 313 312 313 313 313 314 314 313 314 312 314 314 315 314 315 315 314
315 315 315 315 315 315 315 315 316 316 316 316 315 311 308 310 312 313 314 314 313 313 314 314 314 314 313 311 312 312 311 308 308 311 310 311 311 309 314 314 314 314 315 315 315
314 314 313 313 312 312 311 312 313 313 314 314 314 313 311 314 311 310 312 312 312 313 313 313 313 313 313 312 310 310 308 310 309 308 310 312 311 310 313 313 313 314 314 314 315
317 317 316 316 315 314 313 312 311 310 310 311 313 311 311 313 311 310 309 311 311 312 312 312 312 312 311 308 308 307 309 307 308 308 309 309 310 309 312 311 311 312 313 313 313
319 319 320 320 320 320 320 319 317 312 311 310 310 309 312 313 311 311 311 311 311 311 311 312 311 308 305 307 310 309 307 306 307 309 306 308 309 308 311 311 310 310 310 311 311
321 322 323 323 322 321 321 321 320 315 314 315 312 312 312 310 309 310 312 311 311 310 308 309 307 309 310 307 306 307 306 306 305 306 307 309 309 308 308 308 309 310 310 310 311
324 324 324 324 324 324 322 322 320 316 312 322 322 318 318 312 311 312 311 311 310 308 306 306 307 307 307 306 307 307 308 308 308 307 305 307 309 309 309 309 310 310 310 310 311
323 323 323 323 324 323 323 323 322 314 309 316 315 313 315 313 310 311 311 310 308 306 306 308 309 307 307 307 308 306 306 308 307 306 305 305 308 306 308 307 309 311 310 311 312
325 324 323 322 323 323 323 322 322 316 312 313 309 308 307 308 308 309 309 309 308 308 306 306 307 307 306 307 306 309 306 307 307 307 308 306 310 308 309 308 307 309 310 312 312
322 322 322 321 322 323 323 322 318 317 325 312 307 309 309 307 306 306 309 309 308 307 307 309 307 307 308 308 305 308 307 307 306 306 306 307 307 308 307 310 309 308 310 310 309
321 320 320 320 320 322 321 320 319 318 325 316 307 307 308 307 306 307 308 308 306 306 305 305 306 306 307 306 306 307 308 305 303 305 309 308 308 309 308 309 309 309 313 313 312
316 316 316 317 321 321 321 320 320 323 319 316 307 306 306 307 307 305 306 306 306 307 307 305 305 305 306 307 306 307 307 308 309 308 311 305 307 309 308 308 309 309 310 310 308
312 311 311 313 315 317 317 319 321 320 320 316 314 313 313 308 311 307 306 307 304 304 305 307 315 305 305 307 309 306 308 312 318 311 315 309 313 313 307 309 307 308 309 309 306
309 308 308 309 309 313 316 319 319 316 315 318 316 317 316 310 310 308 306 308 308 305 312 315 313 306 303 305 307 306 308 308 311 310 310 312 311 313 309 308 306 306 304 302 303
306 305 305 306 307 310 314 314 316 315 316 317 319 318 318 316 311 310 312 310 307 305 306 313 317 312 310 305 305 307 307 310 308 315 317 315 312 314 310 308 305 302 301 301 300
299 298 302 305 308 312 312 312 312 314 315 316 318 318 318 319 314 316 316 315 309 310 305 311 314 315 310 307 309 305 306 306 306 312 316 317 315 311 309 302 302 301 299 298 299
297 296 303 309 310 311 311 309 311 311 311 312 314 315 315 315 316 315 315 314 314 313 313 310 313 315 314 311 305 307 311 309 312 314 310 314 315 310 302 300 299 296 295 294 296
301 302 308 310 307 309 309 311 311 310 310 311 312 312 312 312 313 312 312 311 312 312 313 312 312 315 313 311 309 312 312 310 310 311 314 315 315 308 306 299 296 294 293 293 292
299 296 303 308 308 306 306 306 306 307 309 310 310 310 310 311 310 311 312 310 310 310 311 311 310 313 315 313 312 312 310 307 307 307 309 310 307 306 304 297 294 295 293 292 292
296 295 299 300 303 301 306 305 305 305 306 306 306 308 307 308 307 308 308 306 306 304 305 308 310 309 311 308 305 305 303 303 303 304 305 304 303 302 296 293 292 291 294 293 290
295 294 297 296 297 299 300 302 303 303 303 303 303 302 301 303 304 306 302 303 303 298 300 301 303 302 302 301 301 300 298 298 299 300 301 301 301 294 292 291 291 290 291 292 289
293 294 294 293 295 295 295 298 296 297 296 296 295 296 297 299 297 296 296 296 296 297 298 298 300 298 301 299 295 296 297 297 297 296 296 297 294 291 291 291 290 289 290 289 288

GFSSW_850_thetae_024.txt.gz
Theta_e
310 310 310 310 310 310 310 310 311 311 311 311 311 312 312 312 312 312 313 313 313 312 315 316 315 315 315 316 317 317 320 320 319 318 318 317 318 314 316 316 315 316 317 318 317
310 310 310 310 311 311 311 311 311 311 311 311 311 311 312 312 312 313 313 313 312 312 314 316 315 315 317 318 318 319 320 319 318 317 317 317 316 317 317 318 317 316 317 317 317
311 311 312 312 312 312 312 312 312 312 312 312 312 312 312 312 313 312 314 313 313 312 314 315 314 315 317 317 318 319 319 319 316 315 314 316 316 316 317 319 318 318 317 317 317
312 313 312 312 312 311 311 311 311 311 311 312 312 312 312 312 315 312 314 313 313 313 314 314 314 316 318 319 318 318 318 318 317 315 315 316 316 316 316 317 317 317 316 316 315
311 311 310 310 310 310 311 311 312 312 312 312 311 310 310 310 313 314 313 313 312 312 313 314 315 316 318 317 316 318 318 317 317 315 315 315 316 317 317 316 316 316 314 314 314
311 313 314 315 316 316 317 317 318 318 318 318 317 316 313 309 311 313 313 312 312 313 313 314 315 315 316 316 316 316 315 316 315 315 315 315 316 314 315 315 314 314 314 314 314
316 316 316 315 315 315 314 314 315 315 315 316 316 316 315 317 316 312 312 313 312 313 314 314 314 314 315 315 313 313 315 316 315 313 314 313 315 315 315 315 313 314 314 314 314
315 315 315 314 314 314 314 313 313 312 312 311 312 314 314 316 316 314 310 309 311 313 314 314 313 313 313 312 312 313 313 315 315 312 312 314 316 316 315 312 313 314 314 314 314
317 317 318 318 318 318 318 318 318 318 315 311 310 312 312 313 312 312 310 309 311 312 313 313 312 313 312 315 315 314 315 316 315 312 313 314 315 316 313 312 313 313 313 313 313
319 320 321 321 322 322 322 322 322 318 314 312 310 310 312 312 312 311 311 310 311 311 311 312 312 314 313 314 316 317 315 314 313 314 312 312 313 314 313 312 312 312 313 313 313
321 322 323 323 324 324 324 323 322 319 320 320 319 315 316 313 311 310 311 311 311 311 313 312 314 314 315 314 315 314 313 314 314 314 312 313 313 313 312 312 312 313 313 314 313
324 323 323 323 323 324 324 323 322 320 317 322 322 321 317 312 312 311 310 311 311 313 310 311 313 314 313 312 312 313 313 314 314 313 311 313 313 313 313 313 313 313 313 313 313
324 323 323 322 322 323 323 322 320 320 314 317 315 314 314 313 312 313 311 310 311 311 311 314 315 311 311 312 312 313 313 313 314 312 311 311 314 314 315 313 312 312 312 311 311
322 323 323 322 322 323 323 320 319 318 321 319 310 309 307 309 309 308 309 309 310 312 311 312 311 310 310 311 312 314 314 312 311 312 313 310 315 316 315 315 313 313 311 311 310
322 322 322 322 322 322 322 320 320 316 328 313 308 309 308 307 307 307 308 309 311 311 310 314 311 310 311 312 311 313 309 309 310 311 311 313 313 318 311 315 315 313 310 308 306
320 320 321 320 320 321 322 321 319 322 328 318 308 310 309 307 306 307 308 308 308 308 309 310 307 308 311 308 309 308 310 310 309 311 315 316 314 316 315 314 314 313 306 305 304
319 317 316 316 317 320 321 319 322 325 320 320 311 308 310 309 308 308 311 313 316 317 318 316 314 308 307 310 308 309 311 316 320 318 320 310 315 314 314 312 311 307 305 304 303
314 313 313 313 315 317 318 320 322 320 320 318 316 312 320 311 315 311 315 317 310 311 314 317 319 309 307 311 314 310 314 321 324 324 323 318 321 319 314 310 306 305 305 303 302
310 309 310 311 310 312 316 318 318 319 318 319 318 319 319 315 315 313 313 316 313 309 315 318 318 310 306 307 311 314 313 313 316 317 318 318 318 316 311 311 307 306 305 302 301
308 307 307 307 307 310 314 313 314 316 316 318 319 318 318 317 315 313 316 311 311 307 308 315 319 316 313 306 307 310 309 313 315 319 321 318 316 316 314 311 309 306 303 300 299
304 302 303 304 307 311 312 311 311 312 313 316 316 317 317 317 317 317 317 316 315 312 309 314 315 315 314 313 314 308 311 313 313 316 318 318 315 313 312 308 307 303 299 298 297
296 300 302 307 310 310 311 310 310 311 311 312 313 315 315 314 314 314 314 313 314 313 314 313 315 316 316 314 311 312 314 315 316 315 313 313 314 309 307 304 301 298 296 296 294
298 302 307 309 309 309 310 310 310 310 310 311 310 312 312 312 312 311 311 311 311 312 313 313 314 315 316 313 310 311 312 312 312 312 315 316 317 308 302 300 298 296 295 294 294
298 301 304 307 307 307 307 307 308 306 308 309 309 310 310 310 309 310 310 310 307 309 307 310 312 312 314 314 313 313 312 311 311 312 312 312 310 309 308 305 297 294 294 293 291
297 298 300 306 306 306 305 305 306 306 305 306 306 308 306 306 306 307 306 306 306 303 306 307 309 309 310 310 310 308 307 306 306 306 307 306 306 305 304 296 294 291 292 294 290
295 296 297 298 298 301 303 304 304 304 303 303 304 303 302 303 303 305 303 303 304 302 302 302 305 305 303 304 304 304 303 303 302 301 301 301 301 302 294 292 293 291 291 292 291
293 294 295 295 296 299 300 301 300 299 296 297 297 298 299 299 299 298 297 296 297 299 299 299 301 302 303 302 300 300 300 300 300 300 300 299 298 294 293 292 292 291 290 291 290

GFSSW_850_thetae_027.txt.gz
Theta_e
310 310 310 310 310 310 310 311 311 311 311 311 311 311 312 312 312 312 313 313 312 312 314 316 316 316 317 320 318 319 321 321 321 320 319 319 319 319 318 318 318 318 318 319 318
310 310 310 311 311 311 312 312 312 312 312 312 312 312 312 312 313 313 313 313 313 312 312 315 318 317 319 320 320 320 322 321 321 320 319 318 318 318 318 318 319 319 319 319 318
311 311 312 312 312 312 312 312 312 312 312 312 312 312 312 312 314 314 314 313 313 312 313 317 317 317 319 319 320 321 321 320 320 319 318 318 318 318 318 319 318 319 319 318 318
312 312 312 312 311 311 311 311 311 311 311 311 311 311 311 310 317 312 315 313 312 312 313 315 316 317 319 320 319 320 319 319 319 319 317 318 318 318 317 317 317 317 317 317 317
311 310 310 310 311 312 313 315 316 316 317 317 317 317 315 313 314 314 313 313 313 312 314 316 316 317 319 318 318 320 319 318 318 318 318 318 318 318 317 317 317 317 317 317 317
311 313 314 316 316 317 317 318 318 318 318 319 318 318 316 316 315 312 313 313 312 312 314 315 316 317 317 317 317 317 317 317 317 317 317 317 317 316 316 316 316 316 316 316 316
317 317 317 316 315 315 315 314 314 314 314 314 313 314 314 316 319 318 314 312 312 312 316 315 316 316 316 317 317 316 316 316 316 316 317 315 316 317 316 317 316 316 315 316 316
315 315 315 315 316 316 316 317 317 316 316 314 312 311 314 315 315 315 313 310 311 312 314 314 314 315 315 316 315 315 316 317 318 316 316 315 316 317 317 315 315 315 315 315 315
316 316 317 318 319 320 321 321 322 322 320 318 313 310 314 312 313 312 311 310 310 311 313 313 314 315 315 316 316 317 318 318 318 318 316 315 316 317 316 315 315 315 315 315 315
317 318 319 321 322 323 324 324 323 321 317 314 311 312 312 312 311 311 311 310 311 312 312 313 314 315 316 316 318 319 319 319 318 317 316 316 316 316 315 315 315 315 315 315 315
320 320 321 322 323 324 324 324 323 322 321 321 322 318 320 315 313 311 311 311 312 313 315 314 315 316 318 318 317 317 317 317 317 316 317 317 317 316 316 315 315 315 315 316 315
323 324 323 323 322 323 324 323 322 322 320 322 322 322 319 316 314 312 311 312 312 315 315 314 315 316 316 316 314 315 316 316 316 317 317 316 316 315 315 315 315 315 315 315 313
324 324 324 322 322 322 323 322 319 318 318 321 316 315 313 314 317 318 313 313 314 316 315 316 318 316 314 315 315 316 316 316 317 316 315 315 315 317 316 317 317 315 314 311 310
323 322 323 322 321 323 322 321 320 318 322 321 314 310 308 311 312 309 310 312 313 316 316 316 313 312 313 314 314 315 315 315 314 314 315 313 315 316 318 318 315 312 310 309 307
322 322 322 322 322 322 322 321 320 318 329 316 310 309 308 310 310 309 309 310 314 314 313 315 313 313 313 314 314 314 312 312 312 312 314 315 316 318 318 317 314 311 309 307 306
320 320 320 321 320 321 321 322 320 323 328 321 311 312 310 309 309 309 309 308 310 312 312 315 310 311 313 312 312 311 311 313 314 314 318 319 319 319 318 316 311 309 307 306 305
319 320 319 318 321 319 320 320 324 324 321 323 315 311 314 313 311 310 313 313 318 319 319 318 314 314 310 313 312 310 313 320 323 321 322 315 320 318 317 314 311 309 307 306 305
317 316 316 315 315 318 320 321 324 320 320 320 318 315 320 317 317 314 317 319 318 317 318 317 316 314 309 312 315 314 317 324 327 325 323 320 321 320 317 310 308 308 306 305 303
315 313 313 313 312 314 318 320 319 318 318 319 319 319 319 318 318 319 318 317 316 315 316 318 317 313 309 309 314 318 319 318 320 320 321 317 317 317 318 313 310 308 305 303 301
311 309 309 310 310 311 315 316 314 314 316 317 319 318 317 317 317 316 315 315 316 311 312 316 320 317 316 310 312 311 311 315 315 317 319 317 319 318 314 313 310 307 304 301 300
308 306 306 307 307 312 314 312 310 310 313 316 316 316 314 314 315 315 315 315 316 312 313 315 316 315 314 314 314 310 311 311 313 317 318 320 319 316 313 311 309 304 301 300 298
303 305 302 307 310 310 312 311 310 311 312 312 313 313 314 313 313 313 313 313 314 313 315 314 314 316 313 312 312 314 315 314 316 317 317 318 318 310 308 305 303 301 300 298 297
301 305 304 310 311 312 310 310 310 310 311 311 311 311 311 311 311 310 310 311 311 312 313 313 313 314 314 309 312 314 313 312 313 313 315 316 315 308 304 303 301 300 298 296 295
301 304 306 308 308 308 309 308 309 309 309 309 309 308 309 309 309 309 309 310 308 309 307 309 311 312 312 308 309 310 311 311 312 313 313 314 312 310 309 308 304 299 297 296 294
299 302 304 308 308 308 306 306 306 307 306 307 307 307 307 307 307 307 307 307 307 305 305 307 308 307 307 307 307 308 307 308 308 309 309 309 308 306 306 304 299 295 294 294 294
298 299 299 303 305 306 306 307 305 305 304 304 306 305 306 306 306 305 305 304 304 303 303 304 304 303 303 303 303 303 303 304 304 305 304 304 303 304 299 296 296 295 293 292 292
293 295 299 299 301 304 306 305 303 304 301 301 302 302 302 302 301 301 300 300 300 300 301 300 301 301 301 300 300 301 301 301 302 302 302 302 301 296 296 294 293 292 292 292 291

GFSSW_850_thetae_030.txt.gz
Theta_e
310 310 310 310 310 310 311 311 311 311 311 311 311 312 312 312 312 313 314 314 313 312 312 315 316 316 317 320 319 319 319 320 321 321 320 319 318 319 318 318 318 318 318 318 318
310 310 310 311 311 312 312 312 312 312 312 312 312 312 313 313 314 315 314 313 312 312 312 314 317 318 319 320 320 319 321 321 320 318 318 319 318 318 318 318 318 318 318 319 318
310 311 312 312 312 312 312 311 312 311 311 311 311 311 312 312 313 316 313 313 312 313 313 315 318 318 318 319 321 321 320 320 319 319 319 318 317 318 318 316 318 318 317 317 318
312 312 312 312 311 311 311 311 312 312 313 314 315 315 315 314 317 313 314 314 312 312 313 315 317 318 318 319 320 319 319 319 319 319 319 318 318 318 318 318 317 317 317 317 317
312 311 310 311 312 313 315 316 317 318 319 319 319 319 318 316 315 315 314 313 313 313 312 316 316 317 318 318 317 317 318 319 318 318 318 318 318 317 317 317 317 317 317 317 316
310 312 314 316 317 317 318 317 317 317 317 316 315 315 315 316 318 317 313 313 312 312 313 316 316 317 317 317 316 317 317 316 316 316 316 316 316 317 316 316 316 316 316 316 316
316 317 317 317 316 316 315 315 316 316 316 315 314 312 313 316 317 318 315 313 312 312 315 316 316 316 316 317 315 316 315 314 315 316 315 317 314 314 316 316 316 317 316 315 316
316 315 315 316 316 317 317 318 318 319 319 319 317 312 313 314 315 314 314 313 311 312 313 316 316 315 315 316 316 315 314 315 316 317 315 315 314 314 316 316 315 315 315 315 315
315 316 316 317 318 319 320 321 322 322 321 320 316 312 315 312 312 312 312 311 311 311 312 313 313 315 315 315 315 314 314 315 316 317 315 314 315 315 315 315 315 315 315 315 315
316 317 318 319 321 322 323 323 323 323 320 316 312 313 313 313 312 311 312 310 312 312 313 313 314 314 313 313 314 316 316 316 316 316 315 314 313 313 316 316 316 316 316 315 312
318 319 320 322 323 323 324 324 324 323 323 321 322 320 322 317 316 313 311 311 313 314 315 314 314 314 315 315 316 315 314 314 315 315 314 315 315 314 315 315 315 315 315 315 309
321 322 323 323 323 322 322 323 323 321 319 321 322 322 321 320 316 313 312 312 313 314 315 314 314 315 315 315 314 314 314 314 314 315 314 313 314 314 313 314 314 314 312 310 308
322 322 323 324 322 321 323 322 320 319 316 320 319 318 316 316 318 316 314 313 314 315 316 315 317 316 316 315 315 314 315 314 314 313 313 312 312 313 314 315 311 310 308 307 306
323 323 323 323 321 323 322 322 320 320 320 321 315 311 309 312 313 311 313 313 314 317 317 317 315 314 313 313 313 314 314 313 313 312 312 310 311 313 313 312 309 308 307 306 305
323 322 322 322 324 323 323 322 321 318 326 318 310 310 309 312 310 309 310 311 314 314 313 315 312 312 313 314 314 314 312 312 311 311 311 312 312 314 314 310 309 308 306 305 304
322 321 321 321 321 322 321 321 320 322 326 317 311 312 310 309 309 309 310 309 310 312 312 312 311 311 313 314 311 311 310 310 310 311 314 315 315 316 313 310 308 308 306 305 304
321 320 320 320 322 320 320 320 325 325 321 320 315 312 313 312 311 311 312 311 315 317 317 316 314 311 312 313 310 310 310 315 318 314 317 316 317 317 317 310 308 307 306 304 303
319 319 318 317 317 318 319 321 324 321 321 317 316 314 318 315 314 312 314 316 316 316 317 317 316 313 309 313 314 312 316 317 319 319 318 314 316 318 311 308 308 306 305 303 302
318 317 315 314 314 317 318 322 321 319 318 318 320 321 320 319 320 319 317 317 316 316 316 314 316 309 309 309 311 316 318 317 319 312 316 315 314 313 309 308 307 305 303 301 300
315 314 314 313 312 312 316 317 317 316 315 317 320 318 317 317 318 317 315 315 315 311 311 316 317 317 313 311 311 313 311 316 315 313 308 312 312 313 312 310 306 303 301 300 298
308 308 308 310 310 311 313 314 312 312 313 315 316 316 315 314 314 314 314 315 316 311 313 315 316 315 314 312 313 309 310 310 312 312 313 313 311 311 310 310 306 302 301 299 297
306 307 305 307 310 311 312 311 310 310 311 312 313 314 314 312 312 312 313 312 314 313 314 313 314 313 313 311 309 310 311 312 316 313 312 313 314 309 305 303 303 302 301 298 297
303 306 303 309 310 310 310 310 310 310 310 311 312 312 311 311 311 311 310 311 311 312 312 312 311 306 305 307 311 312 311 312 311 310 312 314 312 309 303 303 303 303 300 298 296
302 305 305 309 309 310 310 310 310 309 310 310 310 309 309 309 309 309 308 310 309 309 307 308 310 305 306 306 306 306 306 307 306 309 308 307 307 305 306 305 304 301 298 297 295
301 303 305 307 307 308 308 307 308 309 309 307 309 309 308 307 306 306 306 306 307 306 305 306 302 304 304 305 304 303 303 304 305 304 304 304 304 304 305 300 297 295 294 294 295
299 299 302 304 305 307 307 306 306 306 306 306 306 305 305 306 306 303 304 304 304 303 303 304 297 299 295 300 301 301 301 301 301 301 301 301 301 301 297 296 296 296 294 292 291
297 298 301 302 303 305 306 306 305 305 305 303 303 303 303 302 300 300 300 300 301 300 300 299 296 291 292 298 296 293 297 298 299 299 299 299 298 294 295 295 293 292 292 292 292

GFSSW_850_thetae_033.txt.gz
Theta_e
310 310 310 310 310 310 311 311 311 311 312 312 312 312 313 313 313 313 314 315 313 312 312 313 315 316 317 320 319 318 313 314 317 316 315 317 316 318 318 318 318 318 318 318 318
310 310 310 311 311 311 312 312 312 312 312 312 312 312 312 312 313 314 314 313 312 312 312 312 316 317 318 319 320 317 313 316 316 315 317 317 316 316 316 316 317 317 317 317 317
310 310 311 312 312 312 312 312 312 311 311 312 312 313 313 314 313 315 313 312 312 312 313 314 317 318 317 318 320 319 316 317 318 319 318 317 317 318 317 313 317 317 317 317 317
311 312 312 312 311 311 311 312 313 314 316 317 318 319 319 319 313 313 313 314 312 312 313 314 317 317 317 316 319 318 318 319 318 318 317 317 318 317 317 317 316 316 317 317 316
312 312 311 311 311 313 315 317 318 319 319 319 318 318 318 318 318 317 315 314 312 312 312 314 316 317 316 316 315 315 315 317 317 317 317 316 315 316 317 316 316 316 316 316 316
311 310 311 314 316 317 318 318 317 317 316 316 316 315 314 315 318 318 316 313 312 312 312 315 316 316 316 316 315 315 315 315 315 315 315 314 314 316 316 316 316 315 316 316 315
311 315 317 317 317 317 316 316 316 317 317 317 317 315 313 315 317 317 317 315 313 313 313 315 315 316 315 314 315 315 313 312 314 314 313 314 314 313 316 315 315 316 316 316 315
318 317 316 316 316 316 317 317 318 319 320 320 319 316 314 315 315 315 315 314 313 312 313 315 316 316 315 315 314 313 312 313 313 314 315 314 312 312 316 315 316 316 316 316 312
315 315 315 316 317 318 319 320 321 321 321 320 317 313 315 312 312 312 312 312 312 311 312 313 315 314 314 312 311 312 311 312 313 314 314 313 312 313 316 315 315 315 315 311 311
315 316 316 317 319 320 321 322 323 322 321 316 313 315 313 312 312 311 312 311 311 311 312 312 313 310 309 309 311 313 312 313 313 313 312 312 310 310 314 314 314 313 312 309 308
316 316 317 318 321 322 323 323 324 323 321 320 320 313 320 319 317 316 313 311 312 313 312 313 310 311 310 310 311 312 313 312 311 312 311 311 310 311 312 314 313 310 308 306 306
317 318 319 321 323 322 322 323 323 322 320 320 320 321 322 322 317 314 312 312 313 312 312 311 311 311 311 313 313 313 312 312 311 312 312 311 311 310 311 309 308 306 306 305 305
319 320 321 323 323 322 322 322 320 320 317 320 319 320 319 319 318 316 312 312 312 311 311 311 313 313 315 314 314 313 313 312 313 311 310 309 308 309 307 307 306 305 305 305 304
319 320 323 323 322 322 322 322 320 320 317 319 315 312 312 314 313 313 312 313 314 313 313 314 314 314 313 313 311 313 311 311 312 310 310 309 310 309 308 307 305 304 304 303 303
320 322 322 322 324 323 322 322 320 318 320 315 310 309 309 312 310 309 311 312 312 312 312 313 311 311 312 311 310 311 310 310 310 309 310 310 309 309 308 308 306 304 303 302 302
322 323 322 322 323 323 323 321 320 318 322 313 309 310 308 308 308 309 310 310 310 311 310 310 311 310 310 311 311 309 310 309 308 307 311 311 311 312 309 308 305 304 303 303 302
324 323 322 321 321 321 321 320 323 324 320 314 311 310 310 309 308 309 309 309 311 314 313 313 311 310 311 312 309 309 309 313 313 311 313 314 314 313 312 306 306 303 303 302 302
323 321 320 321 321 321 319 320 323 320 320 314 312 311 313 311 310 309 311 312 311 313 314 316 316 311 309 312 312 309 310 313 314 317 314 311 315 315 306 305 304 303 302 301 300
321 320 320 319 318 320 319 322 319 319 317 318 317 318 317 317 318 311 309 313 314 311 314 313 314 309 309 308 310 314 314 314 314 311 309 312 312 307 306 304 303 302 301 300 300
318 317 317 317 315 317 316 319 317 316 315 316 319 317 317 316 317 315 315 313 311 311 311 314 313 314 310 311 309 313 312 313 313 310 310 310 310 309 308 305 302 300 300 299 298
316 314 313 315 313 312 314 314 313 313 313 315 315 316 314 313 314 313 313 313 311 310 313 314 313 312 312 312 312 308 310 312 312 312 313 308 308 309 309 305 302 300 300 300 299
312 307 309 310 310 311 312 310 310 310 310 311 312 312 313 312 311 311 311 312 313 310 313 313 311 307 311 310 309 309 310 309 313 311 309 311 312 306 305 304 302 301 301 300 299
307 307 306 309 308 309 309 310 310 309 310 311 311 311 310 309 310 309 309 310 311 310 311 311 309 301 304 303 308 310 311 311 310 309 308 308 307 303 302 302 303 302 302 299 298
305 307 305 311 309 308 308 309 310 310 309 310 310 310 309 309 308 309 309 309 309 308 308 309 308 302 304 302 306 305 305 304 306 306 302 305 304 303 301 302 302 303 301 297 295
303 302 305 307 308 308 308 308 308 309 309 309 308 308 307 307 307 307 307 306 306 306 306 305 302 305 304 303 302 301 302 302 302 302 301 302 301 300 300 297 296 297 297 297 295
300 301 303 303 306 306 307 307 306 308 308 306 307 307 307 306 304 302 302 303 303 302 303 303 297 298 293 300 300 300 299 298 298 299 299 300 300 300 296 296 295 294 293 292 291
299 298 302 302 302 305 305 306 305 304 303 304 305 305 303 301 302 301 301 300 300 300 300 299 295 289 291 297 293 291 295 297 297 297 297 297 297 293 293 294 292 292 292 292 292

GFSSW_850_thetae_036.txt.gz
Theta_e
311 310 310 310 310 310 311 311 311 311 312 312 312 313 313 313 313 313 314 315 313 313 312 313 315 315 316 319 319 317 311 313 315 316 315 317 314 317 317 317 317 317 317 317 317
310 310 310 310 311 311 311 312 312 312 312 312 312 312 312 313 314 314 313 312 312 311 311 312 315 316 317 319 319 315 310 312 314 315 317 316 316 317 316 316 316 315 315 317 317
309 310 310 311 312 312 312 312 311 312 312 312 313 315 316 317 317 315 313 312 312 312 313 315 317 317 317 318 319 316 313 314 317 317 316 316 316 317 316 313 316 316 316 316 316
309 310 311 312 312 312 311 311 313 314 316 318 319 320 320 320 315 313 313 314 312 312 313 314 316 316 316 315 317 317 317 317 318 318 317 315 316 316 316 316 316 316 315 316 316
310 311 312 312 311 311 313 315 318 319 319 319 318 317 317 318 320 319 315 314 313 312 312 314 316 316 315 315 315 314 314 316 316 316 315 315 314 314 315 316 316 315 315 314 314
312 312 311 310 312 315 318 319 318 317 317 316 316 316 314 314 318 318 318 316 313 312 312 313 315 315 315 315 314 314 314 314 315 315 315 313 313 314 316 316 316 315 314 313 314
311 310 311 315 318 318 318 317 316 317 317 318 318 317 315 316 317 317 317 315 312 312 312 314 315 315 315 314 315 314 313 311 312 313 312 313 313 312 316 315 315 315 311 312 313
312 315 317 318 317 316 316 316 317 318 318 319 320 317 316 315 315 315 315 314 313 313 313 314 315 315 315 314 313 312 311 312 312 313 314 313 312 312 316 315 315 313 312 312 311
318 318 317 315 315 316 317 317 318 320 320 321 318 315 315 313 313 313 312 312 312 312 313 313 315 314 314 310 309 310 311 311 312 313 313 313 311 312 315 314 313 312 310 309 308
315 315 315 315 317 318 318 319 321 322 322 320 314 315 315 313 312 311 311 311 311 311 311 312 312 309 307 308 311 311 312 311 312 312 311 311 309 309 313 313 311 309 307 307 306
315 316 316 316 318 320 321 322 322 322 321 320 317 314 318 316 314 312 313 312 312 312 310 312 309 309 308 308 309 311 311 311 310 310 311 311 310 310 310 311 308 305 305 304 303
316 316 316 317 319 322 322 322 323 321 319 320 322 321 321 320 318 315 314 312 312 311 311 310 310 310 310 310 310 311 312 311 310 310 311 310 310 307 305 305 304 304 304 303 302
316 316 318 319 322 322 322 322 321 320 319 319 319 319 319 319 319 317 313 312 311 310 310 311 313 311 312 314 314 312 312 312 313 310 309 308 308 308 306 305 304 303 302 301 301
317 318 319 321 321 322 322 322 321 320 316 318 316 314 316 315 314 313 311 313 312 311 310 311 311 312 312 313 312 313 310 311 311 310 310 307 309 308 307 304 302 301 301 301 301
318 320 319 321 322 322 322 322 320 318 321 314 311 310 310 313 309 309 311 312 312 312 311 314 312 311 312 312 309 311 310 310 310 309 309 308 308 307 306 306 303 301 301 301 301
320 319 320 321 323 322 322 322 320 317 322 312 308 309 308 308 308 308 310 310 310 310 309 310 310 309 310 310 310 308 309 308 305 306 309 307 309 310 308 307 303 301 301 301 300
321 321 322 321 322 323 323 321 321 324 317 313 310 308 308 307 307 308 308 308 309 313 312 312 310 310 310 311 308 308 308 312 312 309 312 311 309 310 306 305 303 301 301 300 300
321 322 323 323 322 322 322 321 322 319 319 313 310 309 310 308 308 308 309 311 309 312 312 316 316 310 309 310 311 308 309 309 307 313 312 310 315 313 303 303 303 302 302 300 300
322 323 322 321 321 321 320 322 323 317 317 315 313 313 312 314 312 308 308 310 311 310 315 313 313 308 308 308 310 312 312 311 312 308 313 311 309 307 303 301 301 301 300 300 300
322 319 320 320 321 320 320 321 319 316 315 316 318 318 317 317 317 310 309 310 313 310 310 312 311 312 310 310 308 312 309 312 310 307 311 309 310 309 306 303 301 299 299 299 300
319 316 316 318 319 316 318 317 316 313 314 314 315 316 315 314 315 313 314 313 310 311 311 312 311 311 310 312 312 308 311 311 310 310 307 305 308 307 306 304 301 299 300 300 301
314 313 315 315 312 312 313 313 312 311 311 311 312 312 312 311 311 310 311 310 311 312 313 311 309 307 311 309 308 308 308 309 313 310 308 309 310 306 305 303 302 301 303 302 300
313 307 311 314 314 311 310 312 310 309 309 309 311 311 310 311 312 309 309 309 310 310 311 310 306 301 304 304 307 309 309 308 307 306 304 311 308 303 303 302 303 303 302 302 300
309 305 307 311 309 311 311 311 311 309 309 310 309 309 309 308 307 308 309 308 308 309 309 309 305 304 306 302 305 305 305 304 304 304 303 307 305 303 302 300 301 301 301 302 299
306 305 306 310 310 309 309 308 310 309 309 309 309 309 309 309 307 307 307 307 305 307 305 305 303 304 305 303 303 302 304 303 303 303 303 303 301 301 299 297 298 298 299 299 297
301 301 303 305 308 308 308 308 308 308 307 307 308 307 306 307 306 304 303 304 304 304 303 302 298 298 294 299 301 301 300 299 300 300 300 300 300 299 298 297 295 295 297 297 296
300 300 301 303 305 307 307 307 306 306 303 305 307 304 305 304 303 301 301 301 301 301 301 301 297 294 297 296 293 293 294 296 296 296 296 295 295 292 294 294 294 294 293 293 292